Rome Fiumicino, Italy

8:56 PM CEST on October 19, 2017 (GMT +0200)
Fiumicino

Weather History for LIRF - March, 2014

Change the Weather History Date:

Monday, March 10, 2014

  Actual Average Record
Temperature  
Mean Temperature 53 °F -  
Max Temperature 62 °F 61 °F 72 °F (2017)
Min Temperature 44 °F 44 °F 32 °F (2005)
Degree Days  
Heating Degree Days 12    
Growing Degree Days 3 (Base 50)    
Moisture  
Dew Point 40 °F    
Average Humidity 63    
Maximum Humidity 87    
Minimum Humidity 33    
Precipitation  
Precipitation 0.00 in 0.08 in - ()
Sea Level Pressure  
Sea Level Pressure 30.05 in    
Wind  
Wind Speed 8 mph ()    
Max Wind Speed 13 mph    
Max Gust Speed -    
Visibility 7.4 miles    
Events Thunderstorm    
Averages and records for this station are not official NWS values.
T = Trace of Precipitation, MM = Missing Value Source: Averaged Metar Reports

Daily Weather History Graph

Daily Weather History Graph

Search for Another Location

Airport or City:

Trip Planner

Search our weather history database for the weather conditions in past years. The results will help you decide how hot, cold, wet, or windy it might be!

Date:

Astronomy

Mar. 10, 2014 Rise Set
Actual Time 6:31 AM CET 6:11 PM CET
Civil Twilight 6:04 AM CET 6:39 PM CET
Nautical Twilight 5:31 AM CET 7:11 PM CET
Astronomical Twilight 4:59 AM CET 7:44 PM CET
Moon 12:37 PM CET (3/10) 2:34 AM CET (3/10)
Length of Visible Light 12h 35m
Length of Day
11h 39m
Waxing Gibbous, 68% of the Moon is Illuminated
Mar 10
Waxing Gibbous
Mar 16
Full
Mar 24
Last Quarter
Mar 30
New
Apr 7
First Quarter

Hourly Weather History & Observations

Time (CET) Temp. Windchill Dew Point Humidity Pressure Visibility Wind Dir Wind Speed Gust Speed Precip Events Conditions
12:20 AM 50.0 °F - 37.4 °F 62% 30.12 in - NE 9.2 mph - N/A   Clear
12:50 AM 48.2 °F - 37.4 °F 66% 30.12 in - NNE 9.2 mph - N/A   Clear
1:00 AM 49 °F - 38 °F 56% 30.12 in 16 mi NNE 9.2 mph - -  
1:20 AM 48.2 °F - 37.4 °F 66% 30.12 in - NNE 9.2 mph - N/A   Clear
1:50 AM 48.2 °F - 37.4 °F 66% 30.09 in - NNE 11.5 mph - N/A   Clear
2:20 AM 46.4 °F 42.9 °F 37.4 °F 71% 30.09 in - NNE 6.9 mph - N/A   Clear
2:50 AM 46.4 °F 44.3 °F 37.4 °F 71% 30.06 in - NNE 4.6 mph - N/A   Clear
3:20 AM 46.4 °F 42.9 °F 39.2 °F 76% 30.06 in - NNE 6.9 mph - N/A   Clear
3:50 AM 48.2 °F - 39.2 °F 71% 30.06 in - NNE 10.4 mph - N/A   Clear
4:00 AM 48 °F - 39 °F 61% 30.06 in 16 mi NNE 10.4 mph - -  
4:20 AM 48.2 °F - 39.2 °F 71% 30.06 in - NNE 10.4 mph - N/A   Clear
4:50 AM 46.4 °F 42.9 °F 37.4 °F 71% 30.04 in - NNE 6.9 mph - N/A   Clear
5:20 AM 44.6 °F 40.2 °F 37.4 °F 76% 30.04 in - NNE 8.1 mph - N/A   Clear
5:50 AM 46.4 °F 43.5 °F 39.2 °F 76% 30.04 in - NNE 5.8 mph - N/A   Clear
6:20 AM 46.4 °F 45.2 °F 37.4 °F 71% 30.04 in - Variable 3.5 mph - N/A   Clear
6:50 AM 44.6 °F 42.2 °F 39.2 °F 81% 30.04 in - ENE 4.6 mph - N/A   Clear
7:00 AM 47 °F - 39 °F 66% 30.05 in 16 mi ENE 4.6 mph - -   Partly Cloudy
7:20 AM 46.4 °F 42.4 °F 39.2 °F 76% 30.04 in - NE 8.1 mph - N/A   Clear
7:50 AM 48.2 °F - 39.2 °F 71% 30.04 in - NNE 4.6 mph - N/A   Clear
8:20 AM 50.0 °F - 39.2 °F 66% 30.06 in 6.2 mi NNE 8.1 mph - N/A   Partly Cloudy
8:50 AM 50.0 °F - 39.2 °F 66% 30.06 in 6.2 mi NNE 5.8 mph - N/A   Partly Cloudy
9:20 AM 53.6 °F - 39.2 °F 58% 30.04 in 6.2 mi NNE 9.2 mph - N/A   Partly Cloudy
9:50 AM 55.4 °F - 41.0 °F 58% 30.04 in 6.2 mi North 10.4 mph - N/A   Partly Cloudy
10:00 AM 57 °F - 41 °F 44% 30.05 in 9 mi North 10.4 mph - -   Partly Cloudy
10:20 AM 59.0 °F - 37.4 °F 45% 30.04 in 6.2 mi NNE 10.4 mph - N/A   Partly Cloudy
10:50 AM 59.0 °F - 39.2 °F 48% 30.04 in 6.2 mi NE 9.2 mph - N/A   Partly Cloudy
11:20 AM 59.0 °F - 35.6 °F 42% 30.04 in 6.2 mi ENE 6.9 mph - N/A   Partly Cloudy
11:50 AM 59.0 °F - 35.6 °F 42% 30.04 in 6.2 mi SSE 6.9 mph - N/A   Scattered Clouds
12:20 PM 60.8 °F - 33.8 °F 36% 30.04 in 6.2 mi South 5.8 mph - N/A   Scattered Clouds
12:50 PM 59.0 °F - 37.4 °F 45% 30.04 in 6.2 mi SW 8.1 mph - N/A   Scattered Clouds
1:00 PM 59 °F - 37 °F 33% 30.03 in 9 mi SW 10.4 mph - -   Partly Cloudy
1:20 PM 60.8 °F - 37.4 °F 42% 30.01 in 6.2 mi SW 10.4 mph - N/A   Scattered Clouds
1:50 PM 60.8 °F - 33.8 °F 36% 30.01 in 6.2 mi SW 11.5 mph - N/A   Scattered Clouds
2:20 PM 59.0 °F - 37.4 °F 45% 30.01 in 6.2 mi WSW 11.5 mph - N/A   Scattered Clouds
2:50 PM 60.8 °F - 39.2 °F 45% 30.01 in 6.2 mi SW 12.7 mph - N/A   Scattered Clouds
3:20 PM 60.8 °F - 41.0 °F 48% 30.01 in 6.2 mi SW 12.7 mph - N/A   Scattered Clouds
3:50 PM 59.0 °F - 42.8 °F 55% 30.01 in 6.2 mi WSW 11.5 mph - N/A   Scattered Clouds
4:00 PM 58 °F - 46 °F 56% 30.01 in 9 mi West 12.7 mph - -   Mostly Cloudy
4:20 PM 57.2 °F - 46.4 °F 67% 30.01 in 6.2 mi West 11.5 mph - N/A   Scattered Clouds
4:50 PM 55.4 °F - 46.4 °F 72% 30.01 in 6.2 mi West 10.4 mph - N/A   Scattered Clouds
5:20 PM 55.4 °F - 46.4 °F 72% 30.01 in 6.2 mi West 6.9 mph - N/A   Scattered Clouds
5:50 PM 57.2 °F - 44.6 °F 63% 30.01 in 6.2 mi West 8.1 mph - N/A   Scattered Clouds
6:20 PM 55.4 °F - 44.6 °F 67% 30.01 in 6.2 mi West 6.9 mph - N/A   Scattered Clouds
6:50 PM 55.4 °F - 44.6 °F 67% 30.04 in 6.2 mi WNW 6.9 mph - N/A Thunderstorm Scattered Clouds
7:00 PM 56 °F - 45 °F 57%  in 9 mi WNW 6.9 mph - -   Mostly Cloudy
7:20 PM 55.4 °F - 44.6 °F 67% 30.04 in 6.2 mi WNW 8.1 mph - N/A   Scattered Clouds
7:50 PM 53.6 °F - 42.8 °F 67% 30.04 in 6.2 mi Variable 3.5 mph - N/A   Scattered Clouds
8:20 PM 53.6 °F - 41.0 °F 62% 30.04 in 6.2 mi Variable 3.5 mph - N/A   Partly Cloudy
8:50 PM 50.0 °F - 41.0 °F 71% 30.04 in 6.2 mi NNW 4.6 mph - N/A Thunderstorm Partly Cloudy
9:20 PM 48.2 °F - 41.0 °F 76% 30.04 in - NNW 4.6 mph - N/A   Clear
9:50 PM 46.4 °F 45.2 °F 39.2 °F 76% 30.04 in - NNE 3.5 mph - N/A   Clear
10:00 PM 46 °F - 40 °F 73% 30.06 in 7 mi North 4.6 mph - -  
10:20 PM 46.4 °F 43.5 °F 41.0 °F 81% 30.04 in - North 5.8 mph - N/A   Clear
10:50 PM 44.6 °F 42.2 °F 41.0 °F 87% 30.06 in - NNE 4.6 mph - N/A   Clear
11:20 PM 44.6 °F 41.4 °F 39.2 °F 81% 30.06 in - North 5.8 mph - N/A   Clear
11:50 PM 44.6 °F 41.4 °F 37.4 °F 76% 30.06 in - North 5.8 mph - N/A   Clear